Location: Ingoldesthorpe
(52.8667°N, 0.5167°E)
Time: 20:20:05
(UTC+00:00)

Cosmos 44 - Pass Details

Date: 19 May 2025
Orbit: 588 x 763 km, 65.1° (Epoch: 21 June)

Event Time Altitude Azimuth Distance (km) Brightness Sun altitude
Rises 21:14:35 0° 314° (NW) 2,894 8.7 -9.4°
Reaches altitude 10° 21:16:51 10° 310° (NW) 2,007 7.2 -9.6°
Maximum altitude 21:21:15 52° 234° (SW) 804 3.6 -10.0°
Enters shadow 21:25:21 13° 160° (SSE) 1,900 4.9 -10.3°
